AO-07 1 07530U 74089B 17252.51977128 -.00000037 00000-0 45762-4 0 9999 2 07530 101.6400 219.5718 0012066 156.7884 314.1562 12.53628583959194 UO-11 1 14781U 84021B 17252.58042388 .00000465 00000-0 63587-4 0 9999 2 14781 097.6893 295.1491 0007065 285.9167 074.1268 14.82928186781858 LO-19 1 20442U 90005G 17252.42913195 .00000038 00000-0 29880-4 0 9999 2 20442 98.5787 188.1019 0010602 258.4977 101.5016 14.32869165443681 HUBBLE 1 20580U 90037B 17252.88073295 .00001268 00000-0 67426-4 0 9999 2 20580 28.4691 167.8563 0002662 8.4798 64.9202 15.08843335303082 MET-2/21 1 22782U 93055A 17252.62883286 -.00000025 00000-0 -35692-4 0 9991 2 22782 082.5499 316.5768 0022196 190.9055 280.7166 13.83802421213104 AO-27 1 22825U 93061C 17252.50612852 .00000022 00000-0 26199-4 0 9999 2 22825 098.8213 219.1631 0009544 085.7262 274.5010 14.30005283249186 IO-26 1 22826U 93061D 17252.51780490 .00000059 00000-0 40463-4 0 9995 2 22826 098.8156 219.2469 0010043 076.8403 283.3899 14.30334932249388 FO-29 1 24278U 96046B 17252.60997525 .00000012 00000-0 45124-4 0 9991 2 24278 098.5496 124.5860 0351215 118.5531 245.1433 13.53078089040047 NOAA-15 1 25338U 98030A 17252.56575551 .00000077 00000-0 51124-4 0 9998 2 25338 098.7818 263.6432 0009894 327.2726 032.7839 14.25815330004771 GO-32 1 25397U 98043D 17252.39397086 .00000017 00000-0 26634-4 0 9995 2 25397 98.6147 192.9767 0002350 101.9166 258.2276 14.23628047995774 ISS 1 25544U 98067A 17252.56373843 .00009353 00000-0 14825-3 0 9999 2 25544 051.6436 337.7004 0004095 249.4830 311.3852 15.54147063074874 NO-44 1 26931U 01043C 17252.35894238 .00000004 00000-0 33426-4 0 9994 2 26931 067.0496 234.0185 0006662 257.0730 102.9627 14.30472651832319 SO-50 1 27607U 02058C 17252.39472005 .00000286 00000-0 62143-4 0 9990 2 27607 064.5543 228.2331 0032401 054.0791 306.3310 14.75358046791408 CO-55 1 27844U 03031E 17252.57853569 .00000156 00000-0 90386-4 0 9999 2 27844 098.6904 260.3594 0010925 102.0338 258.2065 14.22058270736270 CO-57 1 27848U 03031J 17252.60122721 .00000120 00000-0 74399-4 0 9993 2 27848 098.6997 260.6758 0010767 110.5685 249.6648 14.21670289736162 RS-22 1 27939U 03042A 17252.86277684 .00000430 00000-0 85757-4 0 9997 2 27939 97.9516 34.9326 0012060 322.5248 190.9870 14.66597611745726 NOAA-18 1 28654U 05018A 17252.57061825 .00000065 00000-0 60743-4 0 9995 2 28654 099.1787 276.8306 0014161 191.1973 168.8884 14.12348307634070 CO-58 1 28895U 05043F 17252.41066953 .00000389 00000-0 83813-4 0 9992 2 28895 097.8748 050.8678 0015728 234.4451 125.5286 14.63432690632803 Falconsat-3 1 30776U 07006E 17252.39969981 .00008269 00000-0 25626-3 0 9996 2 30776 035.4349 252.2062 0002746 344.1011 015.9628 15.32744016581182 CO-65 1 32785U 08021C 17252.50668638 .00000704 00000-0 82358-4 0 9996 2 32785 097.5632 272.9142 0011663 246.3256 113.6738 14.87944098507365 AAUSAT2 1 32788U 08021F 17252.62819164 .00002275 00000-0 21838-3 0 9994 2 32788 97.5529 285.4064 0011377 201.0356 159.0398 14.93982551508287 DO-64 1 32789U 08021G 17252.59675035 .00006670 00000-0 47139-3 0 9993 2 32789 097.5502 309.0276 0013217 167.8850 192.2697 15.05149891509468 CO-66 1 32791U 08021J 17252.30837235 .00001005 00000-0 10883-3 0 9990 2 32791 097.5589 277.3466 0012248 228.9846 131.0314 14.90300197507591 RS-30 1 32953U 08025A 17252.79231125 .00000044 00000-0 24680-3 0 9995 2 32953 82.5058 187.0471 0020135 98.8540 261.4820 12.43079100421934 PRISM 1 33493U 09002B 17252.72294617 .00002988 00000-0 27279-3 0 9995 2 33493 98.1561 138.6764 0015465 157.6022 202.5903 14.95802386468413 NOAA-19 1 33591U 09005A 17252.58138345 .00000138 00000-0 10009-3 0 9994 2 33591 099.1017 220.6431 0014723 038.3035 321.9179 14.12209661442304 TISAT-1 1 36799U 10035E 17252.33220903 .00001299 00000-0 13903-3 0 9992 2 36799 98.0716 16.8136 0013473 55.0466 305.2015 14.90485519388311 JUGNU 1 37839U 11058B 17252.42632044 .00000346 00000-0 42825-4 0 9995 2 37839 019.9615 299.7001 0019114 032.4168 081.5599 14.12592035305514 SRMSAT 1 37841U 11058D 17252.61405976 .00000358 00000-0 51855-4 0 9997 2 37841 019.9729 341.9808 0011728 289.1940 207.9011 14.10582680305123 AO-71 1 37854U 11061E 17252.59447557 .00006093 00000-0 32829-3 0 9994 2 37854 101.6915 169.1336 0166724 185.0753 174.8775 15.04352206319174 HRBE 1 37855U 11061F 17252.39620124 .00004543 00000-0 24241-3 0 9993 2 37855 101.7038 166.5867 0179896 192.6736 166.9921 15.03315287318970 ALMASAT-1 1 38078U 12006B 17252.59106216 .00059844 43736-5 63164-3 0 9993 2 38078 069.4318 264.7158 0295738 166.9402 193.9649 15.25648015297640 HORYU-2 1 38340U 12025D 17252.52395087 .00000913 00000-0 14254-3 0 9996 2 38340 098.3783 259.4251 0012286 029.7545 330.4359 14.75390803275312 RS-40 1 38735U 12041C 17252.75320066 .00000005 00000-0 -36052-4 0 9996 2 38735 82.4717 271.4543 0016396 200.2793 159.7637 12.42575058232195 BEESAT-3 1 39134U 13015E 17252.61520347 .00007723 00000-0 37887-3 0 9990 2 39134 064.8653 313.8871 0039462 250.2705 109.4163 15.18096028241911 BEESAT-2 1 39136U 13015G 17252.52852155 .00005865 00000-0 31548-3 0 9990 2 39136 064.8722 326.0518 0034147 271.2914 088.4300 15.15318592241665 ZACUBE-1 1 39417U 13066B 17252.56222877 .00000962 00000-0 12785-3 0 9999 2 39417 097.6224 290.6806 0059080 355.4787 004.5885 14.80763009205261 TRITON-1 1 39427U 13066M 17252.60406745 .00000906 00000-0 15233-3 0 9992 2 39427 097.6375 262.3035 0115816 078.5326 282.8860 14.67505334203230 GOMX-1 1 39430U 13066Q 17252.53370647 .00000702 00000-0 13592-3 0 9999 2 39430 097.6700 245.1623 0152852 136.2497 225.0937 14.58912887202047 LO-74 1 39440U 13066AA 17252.60846679 .00001021 00000-0 14932-3 0 9995 2 39440 097.6238 279.2466 0081367 027.5121 333.0361 14.75503603203341 AO-73 1 39444U 13066AE 17252.56743827 .00001174 00000-0 15204-3 0 9997 2 39444 097.6239 291.8479 0058142 351.9154 008.1116 14.81507338203518 SPROUT 1 39770U 14029E 17252.85582034 .00002960 00000-0 34153-3 0 9990 2 39770 97.8763 351.4141 0010426 58.7187 301.5036 14.86375807178717 DUCHIFAT-1 1 40021U 14033M 17252.31407573 .00001596 00000-0 17130-3 0 9991 2 40021 097.9134 165.5846 0013945 029.5557 330.6446 14.89979031175125 NANOSATCBR1 1 40024U 14033Q 17252.28731118 .00001262 00000-0 13901-3 0 9997 2 40024 097.9089 164.3110 0013260 031.4070 328.7936 14.89292156174543 EO-79 1 40025U 14033R 17252.31205545 .00001078 00000-0 12199-3 0 9995 2 40025 097.9066 163.2507 0013451 034.2123 325.9958 14.88483115174492 DTUSAT-2 1 40030U 14033W 17252.27137279 .00000986 00000-0 11308-3 0 9992 2 40030 097.9030 162.2360 0012827 029.5725 330.6214 14.88103369174449 EO-80 1 40032U 14033Y 17252.58624111 .00001364 00000-0 15440-3 0 9996 2 40032 097.9036 162.5553 0012730 028.9826 331.2094 14.88040922174473 ANTELSAT 1 40034U 14033AA 17252.74738447 .00001011 00000-0 15802-3 0 9995 2 40034 97.8466 134.0058 0059767 22.2007 338.1769 14.73748422173382 VELOX-1 1 40057U 14034E 17252.76822552 .00001060 00000-0 15722-3 0 9999 2 40057 98.1941 354.2795 0012042 142.4612 217.7438 14.77188873172246 DAURIA DX 1 1 40071U 14037C 17252.71806478 .00000084 00000-0 18191-4 0 9991 2 40071 98.3457 7.1804 0009704 135.5256 224.6763 14.81047894171484 UKUBE-1 1 40074U 14037F 17252.80476955 .00001099 00000-0 14052-3 0 9995 2 40074 98.3562 11.5660 0005737 129.8487 230.3214 14.83566092171727 HODOYOSHI-1 1 40299U 14070B 17252.79779476 .00003128 00000-0 13808-3 0 9996 2 40299 97.4002 334.2460 0014046 148.9903 359.5977 15.22406610157813 CHUBUSAT-1 1 40300U 14070C 17252.77560476 .00004247 00000-0 19337-3 0 9991 2 40300 97.3919 331.1106 0021433 161.1752 354.2382 15.21023738157640 QSAT-EOS 1 40301U 14070D 17252.81303747 .00008186 00000-0 34170-3 0 9991 2 40301 97.3849 331.4375 0028193 156.6103 344.0585 15.23544223157712 FIREBIRD FU3 1 40377U 15003B 17252.78506575 .00009826 00000-0 41004-3 0 9997 2 40377 99.1199 93.6367 0136067 82.0611 279.6034 15.15806482143825 FIREBIRD FU4 1 40378U 15003C 17252.77617874 .00009746 00000-0 40625-3 0 9991 2 40378 99.1202 93.6692 0136266 81.9811 279.6853 15.15823352143827 GRIFEX 1 40379U 15003D 17252.76704549 .00008047 00000-0 35625-3 0 9994 2 40379 99.1232 91.0801 0142329 90.6083 271.1453 15.13279543143671 NO-84 1 40654U 15025D 17251.32053598 .00014093 00000-0 24887-3 0 00746 2 40654 054.9941 224.7502 0180161 114.6770 247.3240 15.34759591012473 NO-83 1 40655U 15025E 17251.45160644 .00027402 00000-0 38072-3 0 00808 2 40655 054.9799 193.9820 0145273 132.0046 229.3682 15.45416517012548 DEORBITSAIL 1 40719U 15032E 17252.58481592 .00001569 00000-0 23415-3 0 9990 2 40719 097.9696 145.2451 0015165 229.6713 130.3173 14.76141860116777 NUDT-PHONESAT 1 40900U 15049B 17252.59195287 .00009944 00000-0 46604-3 0 9994 2 40900 097.4437 259.3380 0012136 294.0789 065.9176 15.19831150109278 XW-2A 1 40903U 15049E 17252.78202821 .00008100 00000-0 21036-3 0 9996 2 40903 97.4161 279.5221 0013581 327.3930 32.6475 15.39144572110650 XW-2C 1 40906U 15049H 17252.80561582 .00003587 00000-0 19699-3 0 9990 2 40906 97.4567 256.6177 0013469 283.3408 76.6322 15.14689090109047 XW-2D 1 40907U 15049J 17252.78302176 .00003656 00000-0 20011-3 0 9997 2 40907 97.4535 256.3380 0012834 281.2677 78.7112 15.14801563109047 LILACSAT-2 1 40908U 15049K 17252.60196587 .00001832 00000-0 10662-3 0 9991 2 40908 097.4642 255.8542 0014515 280.6539 079.3057 15.13211149108935 XW-2F 1 40910U 15049M 17252.53660065 .00005488 00000-0 29061-3 0 9997 2 40910 97.4553 256.9164 0013566 279.0174 80.9523 15.15752537108921 XW-2B 1 40911U 15049N 17252.72523434 .00003466 00000-0 19013-3 0 9997 2 40911 97.4578 256.6995 0012734 281.9611 78.0194 15.14759972108934 DCBB 1 40912U 15049P 17252.80667134 .00005749 00000-0 28643-3 0 9998 2 40912 97.4525 259.2623 0013525 266.2025 179.2843 15.17880134109123 TW-1C 1 40926U 15051B 17252.81532988 .00026155 00000-0 57350-3 0 9996 2 40926 97.2213 291.7492 0010581 210.9100 236.9425 15.43998409109978 TW-1A 1 40928U 15051D 17252.50605007 .00010927 00000-0 30635-3 0 9994 2 40928 097.2187 286.8029 0010769 251.2106 244.9189 15.36705017109646 IO-86 1 40931U 15052B 17252.06981750 -.00000232 00000-0 -12182-3 0 9999 2 40931 006.0007 354.5887 0013369 348.0238 011.9558 14.76538325105382 GomX-3 1 40949U 98067HA 16292.18357804 .08527750 12374-4 77882-3 0 9992 2 40949 51.6055 106.7696 0006699 286.1344 73.8944 16.38002265 59645 LQSat 1 40958U 15057A 17252.75399155 -.00000244 00000-0 -30203-4 0 9999 2 40958 97.9718 326.5736 0019015 151.4586 208.7677 14.72982238103565 AO-85 1 40967U 15058D 17251.40308421 .00001021 00000-0 13511-3 0 00846 2 40967 064.7766 326.4443 0176676 047.3595 314.2248 14.75486529012071 ATHENOXAT-1 1 41168U 15077C 17252.70424769 .00008404 00000-0 43757-3 0 9991 2 41168 14.9877 271.8947 0012756 106.3249 213.1520 15.11847538 95845 ChubuSat-2 1 41338U 16012B 17252.54443887 .00001326 00000-0 97758-4 0 9991 2 41338 031.0036 296.4859 0013874 174.6516 185.4269 14.99797708085661 ChubuSat-3 1 41339U 16012C 17252.46120071 .00001464 00000-0 10813-3 0 9999 2 41339 31.0107 296.0215 0013620 181.9795 178.0812 14.99997806 85632 Horyu-4 1 41340U 16012D 17252.46399019 .00001554 00000-0 11303-3 0 9996 2 41340 31.0054 292.9202 0014160 189.7703 170.2659 15.00682989 85685 OUFTI-1 1 41458U 16025C 17252.84386919 .00006937 00000-0 37106-3 0 9996 2 41458 98.1777 295.2599 0171786 7.3698 353.0254 15.03543436 75296 e-st@r-II 1 41459U 16025D 17252.60800901 .00006875 00000-0 36720-3 0 9995 2 41459 098.1757 294.9359 0173751 008.2991 352.1040 15.03347761075257 AAUSAT4 1 41460U 16025E 17252.81903756 .00008795 00000-0 46734-3 0 9991 2 41460 98.1698 295.3200 0166117 5.6354 354.6661 15.04372981 75311 NODES 1 1 41477U 98067HX 17252.99019914 .00736676 29090-3 90180-3 0 9991 2 41477 51.6171 277.2765 0006220 31.7079 328.4578 16.07369983 75561 NODES 2 1 41478U 98067HY 17252.52852155 .00569121 16141-3 88627-3 0 9998 2 41478 51.6221 281.0328 0006635 30.8946 329.2455 16.03452016 75478 LO-87 1 41557U 16033B 17252.80056699 .00007178 00000-0 26991-3 0 9998 2 41557 97.4585 332.3109 0015713 71.5127 288.7818 15.27344276 71341 NuSat2 1 41558U 16033C 17252.77699726 .00007831 00000-0 29588-3 0 9990 2 41558 97.4612 332.3509 0015150 70.4833 289.8041 15.27164335 71339 Lapan A3 1 41603U 16040E 17252.81224632 .00000701 00000-0 36274-4 0 9994 2 41603 97.4516 313.7506 0014907 134.0870 1.7731 15.19401366 67500 Swayam 1 41607U 16040J 17252.40957542 .00007193 00000-0 32544-3 0 9993 2 41607 097.4523 313.8378 0015466 137.7196 222.5235 15.21107456067409 Pratham 1 41783U 16059A 17252.22513490 .00000202 00000-0 48818-4 0 9994 2 41783 098.1592 312.6950 0032352 256.7549 103.0043 14.62856703050882 AlSat 1N 1 41789U 16059G 17252.69083701 .00000530 00000-0 10977-3 0 9996 2 41789 98.1579 313.8209 0026958 248.3831 111.4496 14.64073657 50975 ScatSat 1 41790U 16059H 17252.55532728 .00000114 00000-0 40188-4 0 9997 2 41790 098.3023 299.7938 0017216 229.7541 130.2148 14.50853833050499 TY-1 1 41844U 16066D 17252.43278007 .00005268 00000-0 23129-3 0 9999 2 41844 97.4060 258.3267 0014277 306.7926 185.6900 15.22278401 46153 CAS-2T 1 41845U 16066E 17252.46313384 -.00000136 00000-0 -95982-5 0 9990 2 41845 98.7754 270.1018 0365605 358.3515 1.6422 14.37792155 43600 Pegasus-1 1 41846U 16066F 17252.55939782 .00001888 00000-0 29785-3 0 9996 2 41846 098.7787 269.9197 0369121 359.5949 000.4886 14.37106028043599 STARS-C 1 41895U 98067KR 17252.51249097 .00088717 00000-0 82331-3 0 9992 2 41895 051.6366 327.2665 0004226 307.4968 052.5643 15.66695472041188 Tancredo 1 1 41931U 98067KT 17252.58268687 .00261230 00000-0 13170-2 0 9993 2 41931 051.6314 318.6490 0004514 328.1108 031.9620 15.80330248036877 TO-89 1 41932U 98067KU 17252.43436188 .00042470 00000-0 48567-3 0 9993 2 41932 51.6408 331.2924 0003962 232.9749 127.0882 15.61714121 36696 AOBA-V3LOX3 1 41935U 98067KX 17252.59384214 .00047374 00000-0 52805-3 0 9993 2 41935 051.6400 330.1003 0003433 241.9466 118.1181 15.62329160036820 OSNSAT 1 41939U 98067KZ 17252.56606510 .00115130 00000-0 94153-3 0 9998 2 41939 051.6362 324.6097 0003639 267.3981 092.6599 15.69678806036150 EO-88 1 42017U 17008BX 17252.59256446 .00008342 00000-0 35437-3 0 9990 2 42017 097.4868 313.8642 0004947 289.6150 070.4552 15.23307132031330 HAVELSAT 1 42700U 98067LH 17252.74683076 .00035917 00000-0 47091-3 0 9990 2 42700 51.6402 334.8538 0006156 289.5871 70.4457 15.58186787 18119 SOMP2 1 42701U 98067LJ 17252.69303602 .00034846 00000-0 46247-3 0 9991 2 42701 51.6404 335.2487 0006074 289.3233 70.7103 15.57877221 18096 Columbia 1 42702U 98067LK 17252.65724945 .00094925 00000-0 10844-2 0 9992 2 42702 51.6390 334.2556 0006421 295.5843 64.4487 15.61382196 18035 PHOENIX 1 42706U 98067LP 17252.68875719 .00040722 00000-0 53635-3 0 9997 2 42706 51.6404 335.2221 0001380 294.0097 66.0750 15.58023458 18017 X-CubeSat 1 42707U 98067LQ 17252.75302479 .00038697 00000-0 50906-3 0 9990 2 42707 51.6396 334.8964 0001438 296.2144 63.8700 15.58079430 18019 qbee 1 42708U 98067LR 17252.69188415 .00039504 00000-0 52091-3 0 9991 2 42708 51.6397 335.2388 0001506 295.4611 64.6225 15.58005926 17965 ZA-AeroSat 1 42713U 98067LU 17252.78064861 .00030644 00000-0 41529-3 0 9995 2 42713 51.6400 335.0821 0001462 221.0101 139.0782 15.57399625 17681 LINK 1 42714U 98067LV 17252.50601371 .00048858 00000-0 63381-3 0 9995 2 42714 51.6397 336.2439 0001408 248.0682 112.0161 15.58346256 17751 UPSat 1 42716U 98067LX 17252.49090663 .00041885 00000-0 54352-3 0 9992 2 42716 051.6404 336.1468 0004714 295.3374 064.7130 15.58397268017779 SpaceCube 1 42717U 98067LY 17252.76552303 .00038749 00000-0 51377-3 0 9996 2 42717 51.6401 334.9798 0004551 294.7609 65.2909 15.57860020 17053 Hoopoe 1 42718U 98067LZ 17252.69240041 .00043253 00000-0 56603-3 0 9995 2 42718 51.6400 335.2436 0004588 294.7647 65.2868 15.58158315 17049 Challenger 1 42721U 98067MA 17252.75715216 .00058310 00000-0 74253-3 0 9998 2 42721 51.6395 334.9201 0007086 272.4422 87.5759 15.58738249 16755 NJUST-1 1 42722U 98067MB 17252.61028842 .00035474 00000-0 48392-3 0 9997 2 42722 51.6401 336.1910 0007083 268.6002 91.4179 15.57123866 16722 UNSW-EC0 1 42723U 98067MC 17252.84712715 .00046194 00000-0 60954-3 0 9991 2 42723 51.6401 334.7752 0006928 270.8980 89.1219 15.57893653 16747 DUTHsat 1 42724U 98067MD 17252.76643978 .00057360 00000-0 73581-3 0 9994 2 42724 51.6403 334.9848 0006264 276.8726 83.1554 15.58556825 16659 LO-90 1 42725U 98067ME 17252.61123835 .00038678 00000-0 52402-3 0 9994 2 42725 051.6402 336.1992 0006138 273.7907 086.2383 15.57273306016642 nSIGHT1 1 42726U 98067MF 17252.76719088 .00023374 00000-0 33222-3 0 9998 2 42726 51.6407 335.7425 0006090 272.4273 87.6021 15.56255961 16654 QBITO 1 42728U 98067MH 17252.59556915 .00043174 00000-0 57584-3 0 9996 2 42728 051.6409 336.0982 0003638 287.9264 072.1331 15.57655429016439 Aalto-2 1 42729U 98067MJ 17252.78785672 .00039827 00000-0 53174-3 0 9993 2 42729 51.6402 335.1294 0003601 288.3745 71.6855 15.57665637 16479 SUSat 1 42730U 98067MK 17252.66402808 .00040254 00000-0 54040-3 0 9998 2 42730 51.6402 335.8011 0003644 285.8072 74.2518 15.57513016 16442 i-INSPIRE II 1 42731U 98067ML 17252.77935482 .00052911 00000-0 69272-3 0 9996 2 42731 51.6393 335.0644 0006019 217.9253 142.1316 15.58050213 16517 PolyITAN-2-SAU 1 42732U 98067MM 17252.65678769 .00043686 00000-0 58043-3 0 9999 2 42732 51.6392 335.7447 0006233 216.0156 144.0417 15.57739884 16492 SNUSAT-1 1 42733U 98067MN 17252.66460563 .00042807 00000-0 57294-3 0 9993 2 42733 51.6397 335.7982 0006117 217.3299 142.7268 15.57553438 16493 ExAlta-1 1 42734U 98067MP 17252.84376773 .00049078 00000-0 64408-3 0 9995 2 42734 51.6393 334.7464 0007945 244.0496 115.9678 15.58003534 16473 Aoxiang-1 1 42735U 98067MQ 17252.60767369 .00033869 00000-0 46119-3 0 9995 2 42735 051.6400 336.1727 0007609 264.3726 095.6399 15.57191649017850 BeEagleSat 1 42736U 98067MR 17252.60530270 .00037169 00000-0 50261-3 0 9995 2 42736 51.6400 336.1570 0007510 264.1449 95.8687 15.57334057 16547 Atlantis 1 42737U 98067MS 17252.59158237 .00082996 00000-0 99129-3 0 9997 2 42737 051.6381 335.3100 0007332 271.9315 088.0838 15.60274451016442 CAS-4B 1 42759U 17034B 17252.32206730 .00002470 00000-0 16713-3 0 9996 2 42759 43.0185 184.8541 0007273 160.3449 341.6378 15.08984684 13017 CAS-4A 1 42761U 17034D 17252.90062628 .00002879 00000-0 19211-3 0 9998 2 42761 43.0189 181.6264 0007547 163.9829 267.6343 15.09063569 13094 UCLSat 1 42765U 17036A 17252.44003746 .00005749 00000-0 26263-3 0 9993 2 42765 097.4416 311.2828 0011521 348.0658 012.0303 15.20912179012612 NIUSat 1 42766U 17036B 17252.57066824 .00005912 00000-0 27986-3 0 9999 2 42766 097.4418 311.2648 0015298 330.2203 029.8160 15.19626169011906 LituanicaSAT 2 1 42768U 17036D 17252.23370084 .00009946 00000-0 46485-3 0 9996 2 42768 097.4418 310.9475 0015332 334.7950 025.2535 15.19885708011866 InflateSail 1 42770U 17036F 17245.93730135 .99999999 00000-0 73960-1 0 9995 2 42770 097.4262 306.2162 0014869 278.7167 080.9844 16.07641391010932 Aalto 1 1 42775U 17036L 17252.61108279 .00004708 00000-0 22065-3 0 9990 2 42775 097.4417 311.3621 0013537 331.8610 028.1892 15.20101486011861 URSA MAIOR 1 42776U 17036M 17252.60912250 .00004843 00000-0 22662-3 0 9995 2 42776 097.4419 311.3673 0013380 332.3141 027.7380 15.20142770011860 Max Valier Sat 1 42778U 17036P 17252.39202986 .00004892 00000-0 22638-3 0 9998 2 42778 097.4436 311.2144 0012043 339.9984 020.0778 15.20537928011822 Pegasus 1 42784U 17036V 17252.24945572 .00005601 00000-0 25697-3 0 9991 2 42784 97.4419 311.0813 0012067 348.2907 11.8046 15.20767310 11809 NUDATSat 1 42787U 17036Y 17252.70345582 .00009046 00000-0 41058-3 0 9996 2 42787 97.4418 311.5443 0011634 347.1110 12.9826 15.20967407 11715 SUCHAI 1 1 42788U 17036Z 17252.83656763 .00005848 00000-0 26723-3 0 9995 2 42788 97.4416 311.6715 0011650 346.5369 13.5554 15.20895101 11967 SKCUBE 1 42789U 17036AA 17252.57139382 .00007423 00000-0 33800-3 0 9995 2 42789 097.4415 311.4134 0011495 347.6184 012.4768 15.20924784011846 VZLUSAT 1 1 42790U 17036AB 17252.43568421 .00006836 00000-0 31063-3 0 9998 2 42790 097.4414 311.2865 0011234 348.7110 011.3871 15.21024703011822 VENTA 1 1 42791U 17036AC 17252.36868765 .00006338 00000-0 28830-3 0 9990 2 42791 097.4416 311.2251 0011153 349.4957 010.6044 15.21022008011809 Robusta 1B 1 42792U 17036AD 17252.69663288 .00007355 00000-0 33368-3 0 9992 2 42792 97.4412 311.5488 0011102 348.7403 11.3582 15.21054945 11870 D-SAT 1 42794U 17036AF 17252.22308936 .00003512 00000-0 16026-3 0 9992 2 42794 097.4413 311.1080 0009387 350.0175 010.0873 15.21238290011798 BIRD-J 1 42820U 98067MU 17252.59779736 .00039603 00000-0 54870-3 0 9994 2 42820 051.6398 336.8548 0002105 202.3074 157.7826 15.56676255010019 BIRD-G 1 42821U 98067MV 17252.53571163 .00038819 00000-0 53976-3 0 9997 2 42821 51.6401 337.1903 0002214 204.6629 155.4257 15.56589667 9961 BIRD-M 1 42822U 98067MW 17252.60069969 .00037080 00000-0 51597-3 0 9998 2 42822 051.6402 336.8748 0002213 208.6867 151.4003 15.56591065009996 BIRD-B 1 42823U 98067MX 17252.60236645 .00038433 00000-0 53465-3 0 9995 2 42823 051.6404 336.8878 0005760 225.4520 134.6002 15.56567067009993 BIRD-N 1 42824U 98067MY 17252.60471210 .00038479 00000-0 53662-3 0 9994 2 42824 051.6409 336.9037 0005594 226.4891 133.5636 15.56500931009992 TechnoSat 1 42829U 17042E 17252.59384939 .00000887 00000-0 95819-4 0 9995 2 42829 097.6089 160.2352 0015690 055.9094 304.3611 14.90661585008526 Mayak 1 42830U 17042F 17252.79332900 .00003448 00000-0 35553-3 0 9994 2 42830 97.6090 160.4362 0016054 52.5016 307.7660 14.90759749 8559 OBJECT MZ 1 42910U 98067MZ 17252.44720551 .00031682 00000-0 45671-3 0 9997 2 42910 51.6392 338.0966 0007083 247.7565 112.2675 15.55688853 3554 OBJECT NA 1 42911U 98067NA 17252.57634453 .00036194 00000-0 52049-3 0 9997 2 42911 051.6410 337.4632 0006523 243.8337 116.1984 15.55691742003558 OBJECT NB 1 42912U 98067NB 17252.70680031 .00029932 00000-0 43483-3 0 9990 2 42912 51.6377 336.8248 0006173 258.8293 101.2004 15.55515467 3596 OBJECT NC 1 42913U 98067NC 17252.83295406 .00050124 00000-0 71061-3 0 9993 2 42913 51.6394 336.1721 0005529 274.6410 85.3950 15.55936406 3576 OBJECT ND 1 42914U 98067ND 17252.57931566 .00032730 00000-0 47579-3 0 9999 2 42914 051.6404 337.4816 0005936 250.7697 109.2653 15.55452127003548 /EX
